+ View the NASA Portal
+ Center for Near-Earth Object Studies
IMPORTANT:
The SSD Announcement email list is now available. Major changes are coming in the near future, including possible hostname and/or URL changes. To be notified of such changes, subscribe to this email list.
Please visit
this page
for more details.
Don't show this message again
JPL Small-Body Database Browser
Search:
[
help
]
117488 (2005 CT14)
Classification:
Main-belt Asteroid
SPK-ID:
2117488
[
Ephemeris
|
Orbit Diagram
|
Orbital Elements
|
Mission Design
|
Physical Parameters
|
Discovery Circumstances
|
Close-Approach Data
]
[ show orbit diagram ]
Orbital Elements at Epoch 2458600.5 (2019-Apr-27.0) TDB
Reference:
JPL 15
(heliocentric ecliptic J2000)
Element
Value
Uncertainty (1-sigma)
Units
e
.01277321005403323
5.2577e-08
a
2.545689553902514
1.8285e-08
au
q
2.513172926498159
1.426e-07
au
i
1.365389137795926
5.3909e-06
deg
node
30.76551750972466
0.00021408
deg
peri
13.10527897819509
0.00029891
deg
M
272.2018637126953
0.00020916
deg
t
p
2458962.317346208717
(2020-Apr-22.81734621)
0.00086197
TDB
period
1483.565029317967
4.06
1.5984e-05
4.376e-08
d
yr
n
.2426587260320509
2.6144e-09
deg/d
Q
2.578206181306869
1.8518e-08
au
Orbit Determination Parameters
# obs. used (total)
429
data-arc span
10193 days (27.91 yr)
first obs. used
1991-11-06
last obs. used
2019-10-03
planetary ephem.
DE431
SB-pert. ephem.
SB431-N16
condition code
0
norm. resid. RMS
.51585
source
ORB
producer
Otto Matic
solution date
2019-Nov-07 13:52:00
Additional Information
Earth MOID
= 1.51777 au
Jupiter MOID
= 2.43806 au
T_jup
= 3.442
[ show covariance matrix ]
[
Ephemeris
|
Orbit Diagram
|
Orbital Elements
|
Mission Design
|
Physical Parameters
|
Discovery Circumstances
|
Close-Approach Data
]
Physical Parameter Table
Parameter
Symbol
Value
Units
Sigma
Reference
Notes
absolute magnitude
H
16.5
n/a
MPO449687
117488 (2005 CT14)
Discovered 2005-Feb-02 by Spacewatch at Kitt Peak
Reference:
20051019/Numbers.arc
Last Updated:
2005-10-26
[ show close-approach data ]
Alternate Designations
2005 CT14
= 2003 ST124
[
Ephemeris
|
Orbit Diagram
|
Orbital Elements
|
Mission Design
|
Physical Parameters
|
Discovery Circumstances
|
Close-Approach Data
]
2019-Dec-15 21:39 UT
(server date/time)
Site Manager:
Ryan S. Park
Webmaster
:
Alan B. Chamberlin